Regional Weather Roundup
Issued by NWS Kansas City/Pleasant Hill, MO

Home | Current Version | Previous Version | Text Only | Print | Product List | Glossary On
Versions: 1 2 3 4 5 6 7 8 9 10 11 12 13 14 15 16 17 18 19 20 21 22 23 24 25 26 27 28 29 30 31 32 33 34 35 36 37 38 39 40 41 42 43 44 45 46 47 48 49 50
000
ASUS43 KEAX 202310
RWREAX

WEATHER ROUNDUP FOR EASTERN KANSAS AND NORTHWEST MISSOURI
NATIONAL WEATHER SERVICE KANSAS CITY/PLEASANT HILL MO
500 PM CST THU NOV 20 2014

KSZ040-057-103>105-MOZ028-029-037-043-210000-
...KANSAS CITY METROPOLITAN AREA...

CITY           SKY/WX    TMP DP  RH WIND       PRES   REMARKS
K.C. INTL      PTCLDY    34  18  52 NE7       30.20R WCI  28
K.C. DOWNTOWN  CLEAR     36  18  48 E7        30.20R WCI  30
LEES SUMMIT    CLEAR     37  18  46 NE3       30.19S
OLATHE - IXD   CLEAR     36  19  50 E5        30.19R WCI  32
OLATHE - OJC   CLEAR     36  19  50 E6        30.17S WCI  31
LAWRENCE       CLEAR     34  18  52 E6        30.20R HAZE    WCI  29

$$

MOZ001>008-011>017-020>025-030>033-038>040-044>046-053-054-210000-
...NORTHERN AND CENTRAL MISSOURI...

CITY           SKY/WX    TMP DP  RH WIND       PRES   REMARKS
ST. JOSEPH     CLEAR     30  17  58 NE8       30.23R WCI  22
MOSBY          CLEAR     36  19  51 N6        30.22R WCI  31
WARRENSBURG    CLEAR     36  19  51 CALM      30.20S
WHITEMAN AFB   CLEAR     35  18  49 NE3       30.20R
CLINTON        CLEAR     37  23  56 CALM      30.20S
SEDALIA        CLEAR     37  18  46 N5        30.21R WCI  33
WARSAW         NOT AVBL
MARSHALL       CLEAR     37  21  52 N5        30.22S WCI  34
CHILLICOTHE      N/A     32  17  54 N3        30.24R
MOBERLY        CLEAR     32  14  47 W5        30.22R WCI  27
KIRKSVILLE     CLEAR     29  15  56 NW3       30.22R

$$

MOZ041-047>049-056>058-063>065-088>090-097-210000-
...EASTERN AND SOUTHERN MISSOURI...

CITY           SKY/WX    TMP DP  RH WIND       PRES   REMARKS
ST. LOUIS INTL PTCLDY    34  18  52 NW5       30.22S WCI  30
SPIRIT OF STL  PTCLDY    31  20  63 CALM      30.22R
COLUMBIA       CLEAR     32  18  56 N7        30.20R WCI  26
JEFFERSON CITY CLEAR     39  19  44 NW3       30.21S
MEXICO         CLEAR     34  21  60 CALM      30.21R
ROLLA          CLEAR     37  21  52 CALM      30.17S
LEBANON        CLEAR     39  21  48 NE3       30.17S
OSAGE BEACH    CLEAR     39  19  45 NE6       30.19R WCI  35
SPRINGFIELD    CLEAR     45  23  42 NE10      30.13R
BRANSON        PTCLDY    46  23  39 E6        30.12S
NEVADA         CLEAR     36  23  60 NE8       30.18R WCI  29
JOPLIN         CLEAR     45  25  45 NE12      30.12S
WEST PLAINS    CLOUDY    46  21  37 SE3       30.17R

$$

IAZ060-094-KSZ022-034>040-054-083-096-NEZ052-066-093-210000-
...KANSAS...SOUTHEAST NEBRASKA AND IOWA...

CITY           SKY/WX    TMP DP  RH WIND       PRES   REMARKS
TOPEKA         CLEAR     38  19  46 NE7       30.19R WCI  33
MANHATTAN      CLEAR     38  19  46 E8        30.16R WCI  32
EMPORIA        CLEAR     39  20  46 E9        30.14R WCI  33
CHANUTE        CLEAR     42  24  49 NE9       30.14R
WICHITA        PTCLDY    48  24  39 E9        30.08R
OMAHA          PTCLDY    27  18  69 N5        30.22S WCI  22
LINCOLN        CLEAR     30  20  66 E9        30.20R WCI  22
FALLS CITY     CLEAR     29  19  66 E7        30.21R WCI  22
LAMONI         CLEAR     24  16  71 N6        30.21R WCI  17
DES MOINES     PTCLDY    26  13  57 N8        30.23R WCI  18

$$



USA.gov is the U.S. government's official web portal to all federal, state and local government web resources and services.